Time,TemperatureF,DewpointF,PressureIn,WindDirection,WindDirectionDegrees,WindSpeedMPH,WindSpeedGustMPH,Humidity,HourlyPrecipIn,Conditions,Clouds,dailyrainin,SoftwareType,DateUTC
2013-03-15 00:01:00,29.0,-21.0,-100.00,East,80,2.0,3.0,10,-99.99,,,-99.99,,2013-03-15 05:01:00,
2013-03-15 00:23:00,29.0,-21.0,-100.00,East,80,2.0,3.0,10,-99.99,,,-99.99,,2013-03-15 05:23:00,
2013-03-15 00:32:00,29.0,-21.0,-100.00,East,80,2.0,3.0,10,-99.99,,,-99.99,,2013-03-15 05:32:00,
2013-03-15 00:42:00,29.0,-21.0,-100.00,East,80,2.0,3.0,10,-99.99,,,-99.99,,2013-03-15 05:42:00,
2013-03-15 00:52:00,29.0,-21.0,-100.00,East,80,2.0,3.0,10,-99.99,,,-99.99,,2013-03-15 05:52:00,
2013-03-15 01:02:00,28.0,-16.0,-100.00,East,80,1.0,2.0,13,-99.99,,,-99.99,,2013-03-15 06:02:00,
2013-03-15 01:22:00,28.0,-16.0,-100.00,East,80,1.0,2.0,13,-99.99,,,-99.99,,2013-03-15 06:22:00,
2013-03-15 01:32:00,28.0,-16.0,-100.00,East,80,1.0,2.0,13,-99.99,,,-99.99,,2013-03-15 06:32:00,
2013-03-15 01:42:00,28.0,-16.0,-100.00,East,80,1.0,2.0,13,-99.99,,,-99.99,,2013-03-15 06:42:00,
2013-03-15 01:53:00,28.0,-16.0,-100.00,East,80,1.0,2.0,13,-99.99,,,-99.99,,2013-03-15 06:53:00,
2013-03-15 02:02:00,27.0,-19.0,-100.00,NE,50,1.0,2.0,12,-99.99,,,-99.99,,2013-03-15 07:02:00,
2013-03-15 02:22:00,27.0,-19.0,-100.00,NE,50,1.0,2.0,12,-99.99,,,-99.99,,2013-03-15 07:22:00,
2013-03-15 02:32:00,27.0,-19.0,-100.00,NE,50,1.0,2.0,12,-99.99,,,-99.99,,2013-03-15 07:32:00,
2013-03-15 02:42:00,27.0,-19.0,-100.00,NE,50,1.0,2.0,12,-99.99,,,-99.99,,2013-03-15 07:42:00,
2013-03-15 02:52:00,27.0,-19.0,-100.00,NE,50,1.0,2.0,12,-99.99,,,-99.99,,2013-03-15 07:52:00,
2013-03-15 03:02:00,27.0,-17.0,-100.00,ENE,65,0.0,0.0,13,-99.99,,,-99.99,,2013-03-15 08:02:00,
2013-03-15 03:23:00,27.0,-17.0,-100.00,ENE,65,0.0,0.0,13,-99.99,,,-99.99,,2013-03-15 08:23:00,
2013-03-15 03:33:00,27.0,-17.0,-100.00,ENE,65,0.0,0.0,13,-99.99,,,-99.99,,2013-03-15 08:33:00,
2013-03-15 03:42:00,27.0,-17.0,-100.00,ENE,65,0.0,0.0,13,-99.99,,,-99.99,,2013-03-15 08:42:00,
2013-03-15 03:52:00,27.0,-17.0,-100.00,ENE,65,0.0,0.0,13,-99.99,,,-99.99,,2013-03-15 08:52:00,
2013-03-15 04:02:00,28.0,-18.0,-100.00,NE,40,0.0,2.0,12,-99.99,,,-99.99,,2013-03-15 09:02:00,
2013-03-15 04:22:00,28.0,-18.0,-100.00,NE,40,0.0,2.0,12,-99.99,,,-99.99,,2013-03-15 09:22:00,
2013-03-15 04:33:00,28.0,-18.0,-100.00,NE,40,0.0,2.0,12,-99.99,,,-99.99,,2013-03-15 09:33:00,
2013-03-15 04:43:00,28.0,-18.0,-100.00,NE,40,0.0,2.0,12,-99.99,,,-99.99,,2013-03-15 09:43:00,
2013-03-15 04:53:00,28.0,-18.0,-100.00,NE,40,0.0,2.0,12,-99.99,,,-99.99,,2013-03-15 09:53:00,
2013-03-15 05:02:00,28.0,-18.0,-100.00,NE,40,0.0,2.0,12,-99.99,,,-99.99,,2013-03-15 10:02:00,
2013-03-15 05:23:00,28.0,-18.0,-100.00,NE,40,0.0,2.0,12,-99.99,,,-99.99,,2013-03-15 10:23:00,
2013-03-15 05:33:00,28.0,-18.0,-100.00,NE,40,0.0,2.0,12,-99.99,,,-99.99,,2013-03-15 10:33:00,
2013-03-15 05:43:00,28.0,-18.0,-100.00,NE,40,0.0,2.0,12,-99.99,,,-99.99,,2013-03-15 10:43:00,
2013-03-15 05:52:00,28.0,-18.0,-100.00,NE,40,0.0,2.0,12,-99.99,,,-99.99,,2013-03-15 10:52:00,
2013-03-15 07:01:00,29.0,-13.0,-100.00,ENE,60,1.0,4.0,15,-99.99,,,-99.99,,2013-03-15 12:01:00,
2013-03-15 07:23:00,29.0,-13.0,-100.00,ENE,60,1.0,4.0,15,-99.99,,,-99.99,,2013-03-15 12:23:00,
2013-03-15 07:32:00,29.0,-13.0,-100.00,ENE,60,1.0,4.0,15,-99.99,,,-99.99,,2013-03-15 12:32:00,
2013-03-15 07:42:00,29.0,-13.0,-100.00,ENE,60,1.0,4.0,15,-99.99,,,-99.99,,2013-03-15 12:42:00,
2013-03-15 07:52:00,29.0,-13.0,-100.00,ENE,60,1.0,4.0,15,-99.99,,,-99.99,,2013-03-15 12:52:00,
2013-03-15 08:01:00,30.0,-17.0,-100.00,NE,55,1.0,6.0,12,-99.99,,,-99.99,,2013-03-15 13:01:00,
2013-03-15 08:22:00,30.0,-17.0,-100.00,NE,55,1.0,6.0,12,-99.99,,,-99.99,,2013-03-15 13:22:00,
2013-03-15 08:32:00,30.0,-17.0,-100.00,NE,55,1.0,6.0,12,-99.99,,,-99.99,,2013-03-15 13:32:00,
2013-03-15 08:42:00,30.0,-17.0,-100.00,NE,55,1.0,6.0,12,-99.99,,,-99.99,,2013-03-15 13:42:00,
2013-03-15 08:52:00,30.0,-17.0,-100.00,NE,55,1.0,6.0,12,-99.99,,,-99.99,,2013-03-15 13:52:00,
2013-03-15 09:02:00,31.0,-17.0,-100.00,ESE,105,1.0,4.0,11,-99.99,,,-99.99,,2013-03-15 14:02:00,
2013-03-15 09:22:00,31.0,-17.0,-100.00,ESE,105,1.0,4.0,11,-99.99,,,-99.99,,2013-03-15 14:22:00,
2013-03-15 09:33:00,31.0,-17.0,-100.00,ESE,105,1.0,4.0,11,-99.99,,,-99.99,,2013-03-15 14:33:00,
2013-03-15 09:42:00,31.0,-17.0,-100.00,ESE,105,1.0,4.0,11,-99.99,,,-99.99,,2013-03-15 14:42:00,
2013-03-15 09:53:00,31.0,-17.0,-100.00,ESE,105,1.0,4.0,11,-99.99,,,-99.99,,2013-03-15 14:53:00,
2013-03-15 10:01:00,34.0,-17.0,-100.00,ESE,115,0.0,3.0,10,-99.99,,,-99.99,,2013-03-15 15:01:00,
2013-03-15 10:23:00,34.0,-17.0,-100.00,ESE,115,0.0,3.0,10,-99.99,,,-99.99,,2013-03-15 15:23:00,
2013-03-15 10:33:00,34.0,-17.0,-100.00,ESE,115,0.0,3.0,10,-99.99,,,-99.99,,2013-03-15 15:33:00,
2013-03-15 10:43:00,34.0,-17.0,-100.00,ESE,115,0.0,3.0,10,-99.99,,,-99.99,,2013-03-15 15:43:00,
2013-03-15 10:53:00,34.0,-17.0,-100.00,ESE,115,0.0,3.0,10,-99.99,,,-99.99,,2013-03-15 15:53:00,
2013-03-15 12:02:00,35.0,25.0,-100.00,NNE,15,2.0,8.0,66,-99.99,,,-99.99,,2013-03-15 17:02:00,
2013-03-15 12:22:00,35.0,25.0,-100.00,NNE,15,2.0,8.0,66,-99.99,,,-99.99,,2013-03-15 17:22:00,
2013-03-15 12:32:00,35.0,25.0,-100.00,NNE,15,2.0,8.0,66,-99.99,,,-99.99,,2013-03-15 17:32:00,
2013-03-15 12:43:00,35.0,25.0,-100.00,NNE,15,2.0,8.0,66,-99.99,,,-99.99,,2013-03-15 17:43:00,
2013-03-15 12:53:00,35.0,25.0,-100.00,NNE,15,2.0,8.0,66,-99.99,,,-99.99,,2013-03-15 17:53:00,
2013-03-15 14:02:00,35.0,-16.0,-100.00,NNE,20,3.0,5.0,10,-99.99,,,-99.99,,2013-03-15 19:02:00,
2013-03-15 14:23:00,35.0,-16.0,-100.00,NNE,20,3.0,5.0,10,-99.99,,,-99.99,,2013-03-15 19:23:00,
2013-03-15 14:32:00,35.0,-16.0,-100.00,NNE,20,3.0,5.0,10,-99.99,,,-99.99,,2013-03-15 19:32:00,
2013-03-15 14:42:00,35.0,-16.0,-100.00,NNE,20,3.0,5.0,10,-99.99,,,-99.99,,2013-03-15 19:42:00,
2013-03-15 14:52:00,35.0,-16.0,-100.00,NNE,20,3.0,5.0,10,-99.99,,,-99.99,,2013-03-15 19:52:00,
2013-03-15 15:02:00,34.0,-15.0,-100.00,NNE,25,4.0,6.0,11,-99.99,,,-99.99,,2013-03-15 20:02:00,
2013-03-15 15:22:00,34.0,-15.0,-100.00,NNE,25,4.0,6.0,11,-99.99,,,-99.99,,2013-03-15 20:22:00,
2013-03-15 15:32:00,34.0,-15.0,-100.00,NNE,25,4.0,6.0,11,-99.99,,,-99.99,,2013-03-15 20:32:00,
2013-03-15 15:42:00,34.0,-15.0,-100.00,NNE,25,4.0,6.0,11,-99.99,,,-99.99,,2013-03-15 20:42:00,
2013-03-15 15:52:00,34.0,-15.0,-100.00,NNE,25,4.0,6.0,11,-99.99,,,-99.99,,2013-03-15 20:52:00,
2013-03-15 16:02:00,35.0,-11.0,-100.00,NE,35,7.0,10.0,13,-99.99,,,-99.99,,2013-03-15 21:02:00,
2013-03-15 16:22:00,35.0,-11.0,-100.00,NE,35,7.0,10.0,13,-99.99,,,-99.99,,2013-03-15 21:22:00,
2013-03-15 16:33:00,35.0,-11.0,-100.00,NE,35,7.0,10.0,13,-99.99,,,-99.99,,2013-03-15 21:33:00,
2013-03-15 16:43:00,35.0,-11.0,-100.00,NE,35,7.0,10.0,13,-99.99,,,-99.99,,2013-03-15 21:43:00,
2013-03-15 16:53:00,35.0,-11.0,-100.00,NE,35,7.0,10.0,13,-99.99,,,-99.99,,2013-03-15 21:53:00,
2013-03-15 17:02:00,35.0,-16.0,-100.00,NE,35,7.0,14.0,10,-99.99,,,-99.99,,2013-03-15 22:02:00,
2013-03-15 17:22:00,35.0,-16.0,-100.00,NE,35,7.0,14.0,10,-99.99,,,-99.99,,2013-03-15 22:22:00,
2013-03-15 17:33:00,35.0,-16.0,-100.00,NE,35,7.0,14.0,10,-99.99,,,-99.99,,2013-03-15 22:33:00,
2013-03-15 17:42:00,35.0,-16.0,-100.00,NE,35,7.0,14.0,10,-99.99,,,-99.99,,2013-03-15 22:42:00,
2013-03-15 17:52:00,35.0,-16.0,-100.00,NE,35,7.0,14.0,10,-99.99,,,-99.99,,2013-03-15 22:52:00,
2013-03-15 19:02:00,34.0,-15.0,-100.00,NE,35,6.0,9.0,11,-99.99,,,-99.99,,2013-03-16 00:02:00,
2013-03-15 19:22:00,34.0,-15.0,-100.00,NE,35,6.0,9.0,11,-99.99,,,-99.99,,2013-03-16 00:22:00,
2013-03-15 19:32:00,34.0,-15.0,-100.00,NE,35,6.0,9.0,11,-99.99,,,-99.99,,2013-03-16 00:32:00,
2013-03-15 19:42:00,34.0,-15.0,-100.00,NE,35,6.0,9.0,11,-99.99,,,-99.99,,2013-03-16 00:42:00,
2013-03-15 19:52:00,34.0,-15.0,-100.00,NE,35,6.0,9.0,11,-99.99,,,-99.99,,2013-03-16 00:52:00,
2013-03-15 20:01:00,33.0,-17.0,-100.00,NE,35,8.0,11.0,10,-99.99,,,-99.99,,2013-03-16 01:01:00,
2013-03-15 20:22:00,33.0,-17.0,-100.00,NE,35,8.0,11.0,10,-99.99,,,-99.99,,2013-03-16 01:22:00,
2013-03-15 20:32:00,33.0,-17.0,-100.00,NE,35,8.0,11.0,10,-99.99,,,-99.99,,2013-03-16 01:32:00,
2013-03-15 20:42:00,33.0,-17.0,-100.00,NE,35,8.0,11.0,10,-99.99,,,-99.99,,2013-03-16 01:42:00,
2013-03-15 20:53:00,33.0,-17.0,-100.00,NE,35,8.0,11.0,10,-99.99,,,-99.99,,2013-03-16 01:53:00,
2013-03-15 21:02:00,32.0,-12.0,-100.00,NE,35,10.0,15.0,14,-99.99,,,-99.99,,2013-03-16 02:02:00,
2013-03-15 21:23:00,32.0,-12.0,-100.00,NE,35,10.0,15.0,14,-99.99,,,-99.99,,2013-03-16 02:23:00,
2013-03-15 21:33:00,32.0,-12.0,-100.00,NE,35,10.0,15.0,14,-99.99,,,-99.99,,2013-03-16 02:33:00,
2013-03-15 21:43:00,32.0,-12.0,-100.00,NE,35,10.0,15.0,14,-99.99,,,-99.99,,2013-03-16 02:43:00,
2013-03-15 21:52:00,32.0,-12.0,-100.00,NE,35,10.0,15.0,14,-99.99,,,-99.99,,2013-03-16 02:52:00,
2013-03-15 22:01:00,31.0,-19.0,-100.00,NNE,30,9.0,16.0,10,-99.99,,,-99.99,,2013-03-16 03:01:00,
2013-03-15 22:22:00,31.0,-19.0,-100.00,NNE,30,9.0,16.0,10,-99.99,,,-99.99,,2013-03-16 03:22:00,
2013-03-15 22:33:00,31.0,-19.0,-100.00,NNE,30,9.0,16.0,10,-99.99,,,-99.99,,2013-03-16 03:33:00,
2013-03-15 22:43:00,31.0,-19.0,-100.00,NNE,30,9.0,16.0,10,-99.99,,,-99.99,,2013-03-16 03:43:00,
2013-03-15 22:53:00,31.0,-19.0,-100.00,NNE,30,9.0,16.0,10,-99.99,,,-99.99,,2013-03-16 03:53:00,
2013-03-15 23:02:00,31.0,-16.0,-100.00,NNE,30,10.0,15.0,12,-99.99,,,-99.99,,2013-03-16 04:02:00,
2013-03-15 23:23:00,31.0,-16.0,-100.00,NNE,30,10.0,15.0,12,-99.99,,,-99.99,,2013-03-16 04:23:00,
2013-03-15 23:33:00,31.0,-16.0,-100.00,NNE,30,10.0,15.0,12,-99.99,,,-99.99,,2013-03-16 04:33:00,
2013-03-15 23:43:00,31.0,-16.0,-100.00,NNE,30,10.0,15.0,12,-99.99,,,-99.99,,2013-03-16 04:43:00,
2013-03-15 23:53:00,31.0,-16.0,-100.00,NNE,30,10.0,15.0,12,-99.99,,,-99.99,,2013-03-16 04:53:00,